Temp
-19 -19 -19 -20 -21 -21 -21 -21 -22 -22 -23 -23 -24 -24 -24 -25 -25 -25 -25 -25 -25 -25 -25 -25 -24 -24 -24 -24 -24 -24 -23 -23 -23 -23 -23 -22 -22 -22 -21 -21 -20 -20 -20
-19 -19 -19 -20 -20 -21 -21 -21 -21 -22 -22 -23 -23 -24 -24 -24 -24 -24 -24 -24 -24 -24 -24 -24 -24 -24 -24 -25 -25 -25 -24 -24 -24 -23 -23 -23 -23 -22 -22 -22 -22 -21 -21
-19 -19 -20 -20 -20 -21 -21 -21 -21 -21 -22 -22 -23 -23 -24 -24 -23 -23 -23 -23 -23 -23 -23 -23 -23 -24 -24 -24 -24 -25 -26 -26 -25 -25 -24 -24 -23 -23 -22 -22 -22 -22 -22
-19 -19 -20 -20 -20 -20 -21 -21 -21 -21 -21 -22 -22 -22 -23 -23 -23 -23 -23 -23 -23 -24 -23 -23 -23 -24 -24 -24 -24 -25 -26 -26 -27 -27 -26 -25 -24 -24 -23 -23 -22 -22 -22
-19 -19 -20 -20 -20 -20 -20 -21 -21 -21 -22 -22 -22 -22 -22 -23 -23 -23 -23 -23 -24 -24 -24 -24 -24 -24 -24 -24 -24 -25 -25 -26 -26 -27 -27 -27 -27 -26 -25 -24 -24 -23 -23
-19 -19 -20 -20 -20 -20 -20 -20 -21 -21 -21 -21 -22 -22 -22 -23 -23 -23 -23 -23 -24 -24 -24 -24 -24 -24 -25 -25 -25 -25 -25 -26 -26 -26 -27 -27 -28 -27 -27 -27 -26 -26 -25
-19 -19 -19 -20 -20 -20 -20 -20 -21 -21 -21 -21 -22 -22 -22 -22 -23 -23 -23 -23 -24 -24 -24 -24 -24 -25 -25 -25 -25 -25 -25 -26 -26 -26 -27 -27 -27 -27 -27 -27 -28 -27 -27
-18 -19 -19 -19 -20 -20 -20 -21 -21 -21 -21 -21 -22 -22 -22 -22 -23 -23 -23 -24 -23 -24 -24 -24 -24 -24 -24 -25 -25 -25 -25 -26 -26 -26 -27 -27 -27 -27 -27 -27 -28 -28 -27
-18 -18 -19 -19 -20 -20 -20 -20 -21 -21 -21 -21 -21 -21 -22 -22 -22 -23 -23 -23 -24 -24 -24 -24 -24 -25 -24 -25 -25 -25 -26 -26 -26 -26 -26 -27 -27 -27 -27 -27 -27 -27 -27
-17 -18 -18 -18 -19 -19 -20 -20 -20 -21 -21 -21 -21 -21 -22 -22 -22 -22 -22 -23 -23 -23 -24 -24 -24 -24 -24 -25 -25 -24 -25 -25 -26 -26 -26 -26 -26 -27 -27 -27 -27 -27 -27
-18 -18 -18 -18 -18 -18 -19 -19 -20 -20 -21 -21 -21 -21 -22 -22 -22 -22 -23 -23 -23 -23 -23 -24 -24 -24 -24 -24 -25 -25 -24 -24 -25 -25 -26 -26 -26 -26 -26 -26 -27 -27 -27
-18 -18 -18 -18 -18 -18 -18 -18 -19 -20 -20 -21 -21 -22 -22 -22 -22 -22 -22 -23 -23 -23 -23 -23 -24 -24 -24 -24 -24 -24 -24 -24 -25 -25 -25 -25 -26 -26 -26 -26 -26 -27 -27
-18 -18 -18 -18 -18 -18 -18 -19 -19 -19 -20 -21 -22 -22 -22 -22 -22 -22 -22 -22 -22 -23 -23 -23 -23 -23 -23 -24 -24 -24 -24 -25 -25 -25 -25 -25 -25 -25 -25 -26 -26 -26 -26
-17 -18 -18 -18 -18 -19 -19 -19 -19 -19 -20 -20 -20 -21 -21 -22 -22 -22 -22 -22 -23 -23 -23 -23 -23 -23 -24 -23 -24 -24 -24 -25 -25 -25 -25 -25 -25 -25 -26 -26 -26 -26 -26
-15 -16 -17 -18 -18 -19 -19 -19 -19 -19 -20 -20 -20 -21 -21 -21 -21 -21 -22 -22 -23 -23 -23 -23 -23 -23 -24 -24 -24 -24 -24 -24 -24 -25 -25 -25 -25 -26 -26 -26 -26 -26 -26
-15 -15 -15 -16 -17 -18 -18 -19 -19 -20 -20 -20 -20 -20 -20 -20 -21 -21 -21 -22 -23 -23 -23 -23 -23 -24 -24 -24 -24 -24 -24 -24 -24 -24 -25 -25 -25 -25 -25 -26 -26 -26 -26
-14 -15 -15 -15 -16 -16 -17 -17 -18 -19 -19 -20 -20 -20 -20 -20 -21 -21 -21 -22 -22 -22 -23 -24 -24 -23 -23 -23 -24 -24 -24 -24 -24 -24 -24 -25 -25 -25 -25 -26 -26 -26 -26
-14 -14 -15 -15 -15 -15 -16 -16 -17 -17 -18 -18 -19 -19 -20 -20 -21 -21 -21 -22 -23 -23 -23 -23 -23 -23 -24 -23 -24 -24 -24 -24 -24 -25 -25 -25 -25 -25 -25 -25 -26 -26 -26
-14 -14 -14 -15 -15 -15 -15 -16 -16 -17 -17 -17 -17 -18 -18 -19 -20 -21 -21 -22 -23 -23 -23 -23 -23 -23 -23 -24 -24 -24 -24 -24 -24 -24 -24 -25 -26 -25 -26 -26 -26 -26 -26
-14 -14 -14 -15 -15 -15 -15 -16 -16 -16 -16 -16 -17 -18 -18 -19 -19 -20 -21 -21 -22 -23 -24 -23 -23 -23 -23 -24 -24 -24 -24 -24 -24 -24 -24 -24 -25 -26 -26 -26 -26 -26 -26
-13 -13 -14 -14 -15 -15 -15 -15 -16 -16 -16 -17 -17 -17 -18 -18 -18 -19 -19 -20 -21 -22 -23 -24 -24 -23 -24 -24 -24 -24 -24 -24 -24 -24 -24 -24 -24 -25 -25 -26 -26 -26 -26
-13 -13 -14 -14 -14 -14 -15 -15 -15 -16 -16 -16 -17 -17 -17 -17 -18 -18 -19 -19 -19 -20 -22 -23 -24 -24 -24 -24 -24 -25 -25 -24 -24 -24 -24 -24 -24 -24 -24 -25 -25 -26 -26
-13 -13 -13 -14 -14 -14 -15 -15 -15 -16 -16 -16 -16 -17 -17 -17 -17 -18 -18 -19 -19 -20 -21 -22 -24 -24 -24 -24 -25 -25 -25 -25 -24 -24 -24 -24 -24 -24 -24 -24 -25 -25 -26
-13 -13 -13 -13 -14 -14 -15 -15 -15 -15 -16 -16 -16 -16 -17 -17 -17 -17 -18 -18 -19 -19 -19 -21 -22 -24 -24 -25 -25 -25 -25 -25 -25 -24 -24 -24 -24 -24 -24 -24 -25 -25 -25
-13 -14 -14 -14 -14 -14 -14 -15 -15 -15 -15 -16 -16 -16 -16 -17 -17 -17 -17 -18 -18 -18 -19 -20 -21 -23 -24 -25 -26 -26 -25 -25 -25 -25 -24 -24 -24 -24 -24 -24 -24 -24 -25
-13 -14 -14 -14 -14 -14 -14 -15 -15 -15 -16 -16 -16 -16 -16 -16 -17 -17 -17 -17 -18 -18 -18 -18 -20 -22 -24 -25 -27 -26 -26 -25 -25 -25 -24 -24 -24 -24 -24 -24 -24 -24 -24
Height
5649 5639 5629 5619 5608 5598 5586 5572 5558 5545 5535 5524 5516 5512 5508 5505 5502 5499 5497 5495 5493 5492 5491 5490 5490 5489 5489 5489 5490 5491 5493 5495 5496 5499 5501 5504 5508 5512 5517 5523 5529 5535 5541
5651 5640 5631 5621 5610 5600 5589 5577 5565 5552 5540 5531 5523 5515 5510 5506 5502 5499 5497 5494 5492 5490 5489 5487 5486 5486 5485 5484 5483 5482 5483 5484 5485 5486 5489 5492 5496 5499 5504 5508 5513 5519 5526
5652 5643 5634 5624 5614 5604 5594 5583 5571 5559 5548 5538 5530 5522 5515 5508 5503 5499 5496 5494 5491 5489 5487 5485 5483 5482 5480 5478 5476 5474 5474 5475 5476 5476 5475 5479 5482 5486 5490 5495 5499 5505 5511
5654 5646 5638 5628 5619 5608 5598 5588 5577 5567 5557 5548 5538 5529 5521 5514 5507 5501 5496 5493 5490 5487 5484 5482 5479 5477 5476 5475 5472 5470 5469 5469 5469 5467 5465 5464 5467 5470 5474 5479 5483 5488 5493
5657 5649 5641 5632 5622 5613 5604 5593 5582 5574 5565 5555 5546 5537 5528 5520 5514 5507 5500 5495 5490 5486 5482 5478 5475 5473 5471 5470 5468 5467 5465 5464 5462 5460 5455 5453 5453 5455 5459 5463 5467 5471 5474
5660 5653 5644 5636 5627 5619 5609 5599 5589 5581 5571 5561 5553 5544 5536 5528 5520 5512 5505 5498 5493 5488 5483 5478 5473 5469 5466 5465 5464 5462 5461 5459 5456 5453 5449 5445 5445 5447 5449 5450 5453 5456 5460
5662 5655 5647 5639 5631 5623 5614 5605 5596 5588 5578 5568 5559 5551 5543 5535 5527 5518 5510 5502 5495 5489 5484 5479 5474 5469 5464 5461 5459 5457 5455 5453 5451 5448 5445 5442 5440 5441 5442 5442 5442 5444 5447
5664 5657 5650 5642 5635 5627 5618 5609 5601 5594 5585 5576 5567 5558 5549 5541 5533 5525 5517 5509 5500 5492 5486 5481 5475 5470 5465 5461 5456 5453 5450 5447 5445 5443 5440 5438 5437 5435 5434 5433 5434 5436 5438
5666 5659 5653 5646 5638 5630 5622 5614 5606 5598 5590 5582 5574 5565 5557 5548 5540 5531 5523 5515 5507 5499 5492 5484 5477 5471 5466 5462 5457 5453 5448 5444 5440 5438 5435 5433 5432 5431 5429 5428 5427 5428 5430
5669 5662 5655 5648 5641 5634 5626 5618 5611 5604 5596 5588 5581 5573 5564 5555 5547 5538 5529 5520 5512 5504 5497 5489 5482 5474 5468 5462 5456 5452 5448 5443 5439 5435 5431 5429 5427 5425 5424 5423 5422 5422 5422
5670 5662 5657 5651 5645 5638 5630 5622 5614 5607 5600 5593 5585 5578 5570 5562 5554 5545 5536 5527 5519 5511 5503 5495 5488 5480 5472 5465 5458 5452 5447 5443 5438 5434 5430 5427 5424 5421 5420 5419 5418 5417 5416
5671 5665 5660 5654 5648 5642 5635 5626 5619 5610 5603 5596 5589 5582 5575 5568 5559 5552 5543 5534 5525 5517 5508 5500 5493 5486 5477 5470 5462 5455 5448 5442 5438 5434 5430 5426 5423 5420 5417 5415 5413 5412 5410
5672 5667 5661 5656 5649 5644 5637 5631 5623 5615 5609 5601 5592 5586 5578 5571 5564 5556 5548 5540 5531 5523 5515 5507 5498 5490 5483 5475 5468 5460 5453 5446 5440 5435 5431 5427 5423 5419 5415 5412 5409 5406 5403
5673 5668 5662 5656 5651 5646 5640 5635 5626 5618 5611 5604 5597 5591 5582 5575 5568 5560 5552 5544 5537 5529 5522 5513 5505 5497 5488 5480 5473 5465 5459 5452 5445 5438 5433 5427 5423 5419 5415 5410 5407 5403 5399
5677 5670 5663 5658 5652 5647 5642 5635 5626 5620 5614 5609 5601 5594 5586 5580 5573 5564 5556 5548 5541 5533 5525 5518 5511 5503 5494 5486 5478 5471 5464 5456 5449 5442 5436 5430 5424 5419 5415 5410 5405 5401 5397
5681 5674 5668 5661 5654 5648 5642 5636 5629 5623 5616 5610 5603 5596 5590 5585 5577 5567 5559 5551 5543 5536 5530 5523 5516 5509 5502 5493 5484 5476 5468 5461 5454 5447 5441 5434 5427 5421 5416 5410 5405 5400 5395
5686 5679 5672 5665 5659 5652 5645 5639 5632 5626 5620 5613 5606 5600 5593 5585 5577 5570 5562 5555 5548 5541 5535 5529 5521 5514 5505 5497 5490 5482 5474 5466 5459 5452 5445 5438 5431 5425 5418 5412 5406 5401 5395
5690 5683 5676 5669 5663 5656 5648 5642 5636 5628 5622 5615 5608 5601 5593 5586 5578 5570 5561 5555 5548 5543 5537 5530 5523 5517 5510 5502 5494 5486 5478 5470 5463 5456 5449 5442 5436 5429 5422 5415 5408 5402 5396
5692 5686 5680 5674 5667 5659 5652 5646 5639 5632 5624 5616 5610 5602 5594 5588 5578 5569 5563 5556 5549 5542 5537 5531 5525 5517 5510 5504 5498 5491 5483 5475 5468 5460 5453 5445 5438 5432 5426 5419 5411 5404 5397
5694 5688 5682 5676 5669 5662 5655 5649 5642 5634 5627 5619 5612 5604 5597 5588 5578 5570 5564 5557 5549 5543 5536 5531 5523 5516 5511 5504 5497 5491 5485 5477 5470 5464 5457 5451 5443 5435 5427 5419 5411 5405 5398
5695 5689 5683 5677 5671 5665 5658 5651 5644 5637 5630 5622 5615 5607 5598 5589 5581 5573 5565 5557 5548 5539 5532 5527 5521 5515 5508 5502 5497 5491 5485 5480 5473 5466 5459 5452 5445 5438 5431 5424 5416 5407 5399
5695 5689 5684 5678 5671 5666 5660 5653 5646 5640 5632 5624 5616 5608 5600 5592 5583 5575 5566 5557 5547 5538 5529 5521 5516 5512 5506 5500 5494 5489 5484 5479 5473 5467 5460 5454 5448 5441 5433 5426 5419 5412 5404
5692 5687 5682 5677 5671 5665 5659 5653 5646 5639 5632 5625 5618 5610 5601 5593 5583 5575 5565 5556 5547 5535 5525 5515 5508 5503 5499 5494 5490 5486 5482 5478 5473 5467 5462 5455 5449 5443 5436 5430 5423 5416 5408
5689 5684 5679 5674 5669 5664 5658 5652 5646 5640 5633 5626 5618 5611 5603 5595 5584 5575 5566 5556 5545 5535 5522 5511 5501 5495 5490 5487 5484 5482 5478 5475 5471 5467 5462 5456 5450 5444 5438 5432 5425 5418 5411
5684 5680 5676 5671 5666 5661 5656 5651 5646 5639 5632 5626 5619 5611 5603 5595 5585 5576 5567 5556 5545 5533 5521 5507 5496 5486 5481 5476 5476 5476 5474 5471 5468 5465 5461 5457 5452 5446 5440 5435 5428 5422 5415
5680 5676 5672 5668 5663 5658 5653 5649 5644 5638 5632 5625 5618 5611 5604 5595 5586 5577 5567 5556 5544 5532 5520 5504 5491 5479 5472 5467 5466 5468 5468 5467 5465 5463 5459 5456 5452 5447 5442 5436 5431 5425 5420
Wind_Speed
38 40 43 43 42 45 51 53 55 50 46 48 26 18 16 15 15 16 15 14 14 12 8 7 7 8 12 17 21 24 26 28 32 35 37 40 45 50 54 57 60 62 64
37 41 43 43 44 44 46 50 54 55 47 44 46 36 21 16 15 14 14 14 14 13 12 10 10 10 12 14 20 28 33 35 37 41 43 46 46 47 50 50 53 55 57
36 39 41 44 45 45 44 46 50 54 53 46 45 42 43 35 22 16 15 14 13 13 13 13 12 12 14 17 17 16 21 25 29 36 44 49 53 55 57 57 57 56 55
35 38 41 41 44 46 45 46 46 49 52 53 50 44 41 40 39 32 21 16 17 16 16 16 16 17 17 16 15 14 13 13 18 23 29 40 48 56 60 62 63 65 65
33 36 40 42 44 44 47 47 47 46 47 49 49 49 47 41 38 34 32 30 26 20 19 19 17 17 17 17 15 15 12 15 18 18 23 31 38 41 47 57 64 67 68
31 34 37 41 44 45 45 46 50 48 47 46 47 47 45 46 47 43 38 33 28 25 25 24 20 14 14 17 16 16 15 15 15 14 16 17 26 28 31 36 43 50 62
30 33 36 37 40 42 45 45 44 46 49 49 48 47 46 45 46 48 47 42 36 31 26 24 23 24 18 12 14 14 17 17 16 16 14 12 12 21 24 29 33 37 40
29 32 34 36 37 39 42 44 44 44 43 45 49 47 47 47 46 45 47 48 46 40 34 29 23 22 21 20 16 14 14 13 14 17 16 14 11 10 14 20 27 31 33
28 31 33 34 35 37 38 40 42 43 43 43 44 45 45 47 46 47 47 46 44 46 45 40 33 26 20 19 19 19 17 16 12 13 14 17 16 13 13 11 15 23 30
28 30 30 32 34 35 36 37 39 40 41 41 42 43 44 45 46 45 45 47 48 44 43 43 42 36 29 25 22 19 21 20 16 16 12 13 14 17 16 13 13 15 17
25 26 28 30 33 35 37 39 39 40 40 40 40 40 42 43 45 45 45 44 45 47 46 42 39 41 38 31 29 23 18 18 21 19 16 14 12 12 15 17 18 16 16
24 25 27 29 31 34 36 37 39 38 39 39 39 39 39 40 42 44 45 45 44 43 45 43 41 41 41 40 35 33 26 22 15 19 20 19 14 14 10 10 13 18 23
24 23 25 26 28 30 33 35 37 38 38 36 35 37 38 40 41 41 42 44 44 43 42 44 45 42 40 41 40 40 37 31 25 18 17 18 18 16 14 13 13 13 13
31 26 23 24 25 28 30 33 34 35 36 37 38 37 35 35 36 38 41 43 44 45 44 42 42 44 43 40 38 38 37 36 33 28 22 19 16 15 14 14 13 13 13
35 32 30 27 26 27 29 30 30 32 34 35 35 36 36 37 39 40 39 38 38 40 42 44 43 42 41 42 43 38 35 35 36 35 31 28 24 21 18 16 15 14 13
35 34 33 31 29 28 28 28 31 32 33 35 36 37 38 40 41 41 41 40 38 37 39 39 39 40 39 39 40 42 42 38 37 32 30 30 29 27 25 22 19 17 15
32 31 31 31 32 31 31 30 32 33 36 37 37 38 38 39 40 41 40 40 41 40 37 36 37 37 38 39 39 38 39 42 40 38 37 32 28 27 27 25 23 21 18
26 28 29 29 29 30 30 32 33 34 37 38 39 39 40 40 40 40 39 40 39 36 37 36 35 36 36 35 37 38 39 39 40 41 40 37 34 32 31 29 26 24 22
24 24 25 26 27 26 28 31 33 35 35 37 40 40 41 42 40 38 38 38 38 36 34 36 36 35 33 33 34 34 33 33 35 36 39 39 37 36 33 31 31 31 29
22 24 23 24 24 25 25 27 28 29 30 34 39 43 46 47 47 49 48 46 44 42 38 33 34 33 33 31 30 31 32 32 32 31 31 30 32 33 35 38 39 39 38
21 23 23 22 22 23 24 24 25 26 29 32 33 38 42 45 49 51 53 53 51 48 42 35 29 31 31 29 28 28 28 29 30 30 31 32 32 33 33 33 33 37 39
23 22 23 21 21 22 22 24 25 27 28 30 32 34 36 40 46 49 50 52 54 55 52 46 35 27 29 28 26 25 25 27 28 29 29 30 31 32 33 35 34 34 35
21 21 22 22 23 22 20 22 23 24 25 27 30 34 36 39 42 46 48 51 54 56 59 57 44 32 25 28 24 23 22 23 24 26 27 27 28 30 31 31 34 33 33
20 21 21 23 23 24 23 21 22 24 26 27 30 33 37 40 42 45 48 51 53 56 59 62 57 39 26 24 25 22 22 20 20 22 24 25 26 28 30 31 32 36 37
19 20 22 22 23 23 25 25 24 24 26 28 30 33 36 39 42 45 48 51 55 58 62 63 62 54 35 20 18 19 20 19 18 19 21 22 23 25 27 30 31 31 35
22 21 22 24 22 23 24 27 27 26 28 29 31 32 36 40 44 46 48 52 55 59 63 66 63 58 42 19 16 12 15 18 17 16 18 19 21 22 24 27 29 30 31
Wind_Direction
14 16 15 12 12 15 19 20 22 23 25 29 21 14 20 19 16 12 11 8 4 3 357 337 308 290 279 269 258 252 249 248 247 244 241 239 241 240 239 238 238 238 240
16 20 19 18 16 17 20 23 24 27 26 29 33 35 19 1 356 353 353 352 347 340 334 321 305 304 299 286 269 258 251 246 244 243 242 241 238 237 237 237 237 236 235
17 19 20 21 20 22 22 25 27 29 32 30 32 34 37 33 15 356 350 348 341 330 321 309 297 294 306 314 310 291 268 258 255 256 252 243 239 238 237 236 237 238 237
20 21 21 21 23 25 24 26 28 30 33 35 35 34 35 36 37 35 19 352 338 335 322 303 291 286 284 293 303 301 287 274 281 273 265 253 248 244 240 239 240 240 240
20 20 20 22 22 22 25 27 30 29 29 29 31 33 35 36 34 32 34 35 30 14 351 338 319 298 291 287 292 294 290 290 288 294 287 259 248 244 244 245 243 241 242
16 18 18 20 21 21 23 27 31 31 31 31 31 32 32 35 37 36 32 28 25 21 21 20 5 336 304 301 290 292 297 295 311 308 325 284 253 248 249 248 245 246 246
14 15 16 18 20 21 23 25 28 30 32 32 35 36 33 35 36 37 37 34 31 29 25 22 19 20 9 330 310 306 297 289 293 304 310 321 293 265 263 256 248 243 243
16 16 16 17 18 20 21 24 27 30 29 29 33 36 37 37 36 34 33 37 37 33 31 27 23 21 20 22 12 346 321 298 289 284 285 297 295 299 274 266 256 248 247
18 20 18 17 18 20 20 23 25 27 30 30 31 33 33 31 32 35 34 32 33 36 37 33 30 28 22 16 13 11 4 360 323 297 290 276 278 286 288 288 268 250 248
19 22 20 21 22 23 22 23 25 26 28 31 30 30 30 30 30 32 33 33 33 30 31 32 32 30 29 25 16 12 15 13 1 2 332 299 282 270 271 277 277 270 260
16 19 19 20 23 25 27 26 25 24 25 27 29 29 29 29 31 30 32 34 34 33 31 30 31 31 31 29 27 23 14 15 18 13 6 360 348 299 281 272 269 267 263
11 13 15 16 18 20 22 23 26 25 24 22 22 23 24 26 28 29 30 31 32 32 34 32 29 30 34 36 33 29 25 21 15 22 20 14 4 1 341 310 293 279 268
17 12 11 12 12 15 17 19 19 20 22 21 19 18 18 19 22 24 27 29 29 30 32 35 34 32 31 33 34 34 32 30 27 17 12 15 18 15 359 343 328 324 313
29 23 16 8 7 8 9 13 14 15 16 18 18 20 18 18 18 20 22 24 25 25 25 28 30 34 34 32 29 28 31 33 33 30 26 21 12 1 357 356 352 341 326
40 34 28 20 12 7 6 5 4 6 9 13 15 16 14 17 16 18 20 21 22 23 24 25 24 25 29 33 33 32 31 30 30 30 31 31 27 19 9 360 349 343 336
41 39 36 31 22 14 10 3 360 1 2 4 6 7 7 11 13 14 14 15 16 19 19 20 22 24 24 25 29 32 32 33 32 26 24 27 27 27 27 22 15 3 348
36 34 33 33 30 20 15 12 6 3 2 1 1 2 3 3 4 6 8 10 10 11 13 13 13 16 20 23 25 27 27 28 31 32 31 27 24 22 21 20 18 16 8
34 35 30 26 26 22 18 17 16 10 7 3 2 3 2 3 3 1 359 360 5 10 9 7 9 8 9 15 19 22 22 23 24 26 29 31 32 30 29 25 19 12 5
20 26 25 21 22 18 16 15 13 10 7 3 2 2 3 5 359 355 355 354 353 356 4 3 3 2 4 5 8 13 20 22 21 21 20 24 25 27 29 29 29 27 19
16 15 17 12 11 11 13 12 11 12 8 5 1 360 360 359 357 356 354 353 349 347 350 357 354 356 356 357 1 4 6 12 17 20 23 21 23 25 24 20 20 22 23
7 12 16 12 11 14 7 6 5 3 0 358 1 355 353 351 352 353 354 353 349 346 343 343 346 343 345 349 350 356 360 2 7 14 17 20 20 22 29 29 24 18 16
360 4 5 6 4 5 6 5 5 359 356 355 355 353 353 351 348 348 348 346 345 344 345 344 341 337 331 335 340 344 350 356 360 5 12 16 19 19 20 25 28 25 22
342 349 352 352 354 355 353 352 356 357 359 359 355 352 350 350 348 348 348 347 346 343 341 341 345 341 327 320 328 333 339 347 354 358 3 11 16 19 21 20 22 29 27
329 330 337 343 344 346 344 345 348 350 352 355 355 353 351 349 348 348 350 349 347 346 342 339 342 346 335 307 317 323 328 336 346 352 357 3 12 16 18 20 20 17 26
316 318 322 331 338 339 339 340 342 347 349 352 354 356 356 352 350 352 354 351 349 349 349 342 341 343 343 303 298 313 317 325 335 344 352 359 6 15 19 20 22 21 20
313 311 314 320 329 334 336 339 340 340 343 344 349 352 356 352 351 352 355 353 351 351 353 348 345 345 345 314 282 291 308 317 326 336 345 354 1 10 17 21 22 22 23